Location: Härggis
(46.9540°N, 8.4897°E)
Time: 00:07:19
(UTC+00:00)

ARIANE 5 R/B - Pass Details

Date: 27 May 2022
Orbit: 747 x 795 km, 98.7° (Epoch: 26 June)

Event Time Altitude Azimuth Distance (km) Brightness Sun altitude
Rises 02:45:02 0° 19° (NNE) 3,244 7.0 -8.0°
Reaches altitude 10° 02:47:27 10° 25° (NNE) 2,306 6.3 -7.7°
Maximum altitude 02:52:20 47° 99° (E) 1,001 3.5 -7.1°
Drops below altitude 10° 02:57:08 10° 173° (S) 2,267 4.6 -6.5°
Sets 02:59:29 0° 180° (S) 3,183 5.3 -6.2°
